Home   Weather   Kashgar   Past weeks

Flag for China Past Weather in Kashgar, Xinjiang, China — Yesterday and Last 2 Weeks

Now
59 °F

Sunny.


Feels Like: 58 °F
Forecast: 57 / 75 °F
Wind: 6 mph from Southwest

Location: Kashi Airport

Current Time: Sep 29, 2016 at 11:32:46 AM

Latest Report: Sep 29, 2016 at 10:00 AM


Visibility: 10 mi

Pressure: 30.09 "Hg (25.80 "Hg at 1298m altitude)

Humidity: 72%

Dew Point: 50 °F

Location of KashgarLocation

Past Weather in Kashgar — Graph

°F

Kashgar Temperature Yesterday

Maximum temperature yesterday: 79 °F (at 5:00 PM)
Minimum temperature yesterday: 63 °F (at 9:00 AM)
Average temperature yesterday: 71 °F

High & Low Weather Summary for the Past Weeks

 TemperatureHumidityPressure
High86 °F (Sep 17, 4:00 PM)83% (Sep 14, 10:00 AM)30.18 "Hg (Sep 14, 10:00 AM)
Low57 °F (Sep 29, 8:00 AM)9% (Sep 24, 8:00 PM)29.74 "Hg (Sep 24, 5:00 PM)
Average73 °F33%30.04 "Hg
* Reported Sep 14 10:00 AM — Sep 29 10:00 AM, Kashgar, Weather by CustomWeather, © 2016

Note: Actual official high and low records may vary slightly from our data, if they occured in-between our weather recording intervals... More about our weather records

Advertising

Kashgar Weather History for the Previous 24 Hours

Scroll right to see more
 ConditionsComfort  
Time TempWeatherWind HumidityBarometerVisibility
10:00 AM
Thu, Sep 29
59 °FSunny.6 mph72%30.09 "Hg10 mi
9:00 AM57 °FSunny.No wind82%30.09 "Hg10 mi
8:00 AM57 °FSunny.3 mph77%30.09 "Hg10 mi
7:00 AM59 °FPassing clouds.3 mph77%30.09 "HgN/A
6:00 AM59 °FPassing clouds.3 mph72%30.07 "HgN/A
5:00 AM59 °FLight rain. Overcast.6 mph72%30.07 "HgN/A
4:00 AM61 °FLight rain. Overcast.22 mph63%30.09 "HgN/A
3:00 AM63 °FClear.22 mph52%30.09 "Hg10 mi
2:00 AM63 °FClear.24 mph52%30.07 "Hg10 mi
1:00 AM64 °FClear.22 mph46%30.07 "Hg10 mi
12:00 AM63 °FSprinkles. Passing clouds.29 mph59%30.07 "HgN/A
11:00 PM
Wed, Sep 28
70 °FPassing clouds.No wind33%30.04 "HgN/A
10:00 PM72 °FPassing clouds.8 mph31%30.01 "HgN/A
9:00 PM75 °FPassing clouds.10 mph25%30.01 "HgN/A
8:00 PM75 °FPassing clouds.8 mph27%30.01 "HgN/A
7:00 PM79 °FPassing clouds.8 mph23%30.01 "HgN/A
6:00 PM79 °FSunny.8 mph23%29.98 "Hg10 mi
5:00 PM79 °FPassing clouds.3 mph28%30.01 "HgN/A
4:00 PM77 °FPassing clouds.6 mph30%30.01 "HgN/A
3:00 PM75 °FSunny.6 mph31%30.04 "Hg10 mi
2:00 PM75 °FPassing clouds.6 mph31%30.07 "HgN/A
1:00 PM73 °FPassing clouds.6 mph33%30.09 "HgN/A
12:00 PM68 °FPassing clouds.6 mph40%30.09 "HgN/A
11:00 AM66 °FPassing clouds.6 mph46%30.12 "HgN/A
Weather by CustomWeather, © 2016

See weather overviewHow to use our weather pages